Regional Weather Roundup
Issued by NWS

Home | Current Version | Previous Version | Text Only | Print | Product List | Glossary On
Versions: 1 2 3 4 5 6 7 8 9 10 11 12 13 14 15 16 17 18 19 20 21 22 23 24 25 26 27 28 29 30 31 32 33 34 35 36 37 38 39 40 41 42 43 44 45 46 47 48 49 50
000
ASUS44 KFWD 211115
RWRTX
NORTH TEXAS HOURLY WEATHER ROUNDUP
NATIONAL WEATHER SERVICE FORT WORTH TX
500 AM CST TUE NOV 21 2017

NOTE: "FAIR" INDICATES FEW OR NO CLOUDS BELOW 12,000 FEET WITH NO
SIGNIFICANT WEATHER AND/OR OBSTRUCTIONS TO VISIBILITY.

TXZ118-119-211200-
DALLAS/FORT WORTH METROPLEX

CITY           SKY/WX    TMP DP  RH WIND       PRES   REMARKS
DFW AIRPORT    MOCLDY    49  44  83 SE8       29.81F
DALLAS LOVE    MOCLDY    50  44  80 S13       29.85S
FTW MEACHAM    CLOUDY    50  41  71 SE8       29.82F
DAL-EXECUTIVE  CLOUDY    49  45  86 SE9       29.84F
FTW-ALLIANCE   CLOUDY    47  41  80 S6        29.81F
FTW-NAS-JRB    CLOUDY    52  40  63 S13       29.82F
FTW-SPINKS     CLOUDY    51  45  79 S9        29.83F
ARLINGTON      CLOUDY    50  47  89 S12       29.83F
GRAND PRAIRIE  CLOUDY    51  46  80 SE7       29.85S
MESQUITE       CLOUDY    49  46  91 S13       29.87S
LANCASTER      CLOUDY    49  46  90 S8        29.87F
$$

TXZ091>094-102>105-117-120-121-131>134-211200-
NORTH CENTRAL TEXAS

CITY           SKY/WX    TMP DP  RH WIND       PRES   REMARKS
SHRMAN/DENISON PTCLDY    48  42  80 S9        29.84R
GAINESVILLE    CLOUDY    45  38  76 SE9       29.83S WCI  40
BOWIE          CLOUDY    44  34  68 SE3       29.79S
BRIDGEPORT     MOCLDY    39  34  82 NE3       29.82R
DENTON         CLOUDY    48  41  76 S9        29.82S
MCKINNEY       CLOUDY    49  47  93 S12       29.84F
BONHAM         PTCLDY   N/A N/A N/A S12       29.86R
GREENVILLE     CLOUDY    52  50  93 S12       29.88S
ROCKWALL       PTCLDY    49  48  95 S12G17    29.87R
TERRELL        CLEAR     51  47  86 S10       29.88F
WAXAHACHIE     CLOUDY    46  46 100 S3        29.87F
CLEBURNE       PTCLDY    48  48 100 S13       29.84F
GRANBURY       CLOUDY    47  38  70 SE6       29.84S
$$

TXZ083>090-098>101-113>116-127>130-139>142-154-155-211200-
WESTERN NORTH TEXAS

CITY           SKY/WX    TMP DP  RH WIND       PRES   REMARKS
WICHITA FALLS  CLOUDY    41  33  73 S10       29.76R WCI  35
WF-KICKAPOO    CLOUDY    44  35  70 SE7       29.79S WCI  40
VERNON         CLOUDY    44  32  62 E3        29.76F
ABILENE        CLOUDY    51  36  56 SW12      29.78S
ABILENE-DYESS  CLOUDY    53  38  56 S14       29.77R
GRAHAM           N/A     47  36  66 CALM      29.78R
BRECKENRIDGE   CLOUDY    51  34  52 S8        29.77F
CISCO          CLOUDY    52  36  54 S14G21    29.79F
EASTLAND       CLOUDY    48  35  60 S5        29.80S
RANGER         CLOUDY    49  36  60 S10       29.79F
MINERAL WELLS  PTCLDY    45  34  65 SE12      29.80S WCI  39
STEPHENVILLE   CLEAR     44  34  68 S6        29.85S
COMANCHE       CLOUDY    51  40  66 S9        29.82S
BROWNWOOD      CLOUDY    45  36  70 SE3       29.83F
COLEMAN        CLOUDY    45  34  67 S6        29.82F
$$

TXZ143>147-156>162-174-175-211200-
CENTRAL TEXAS

CITY           SKY/WX    TMP DP  RH WIND       PRES   REMARKS
WACO           CLOUDY    53  50  89 S13       29.87F
WACO-MCGREGOR  CLOUDY    50  48  93 S10       29.87F
HILLSBORO      CLEAR     52  49  92 S13       29.85F
CORSICANA      CLEAR     48  47  96 S8        29.89F
MEXIA          CLEAR     47  46  95 S7        29.89F
HEARNE         CLOUDY    51  51  99 SE6       29.91F
CAMERON        PTCLDY    50  49  95 S5        29.90F
TEMPLE         CLOUDY    50  48  93 SE8       29.88F
KILLEEN        PTCLDY    49  46  91 SE8       29.84F
KILLEEN-SKYLRK PTCLDY    51  49  92 SE7       29.87F
FORT HOOD      CLOUDY    49  47  92 S6        29.83F FOG
GATESVILLE     CLOUDY    48  45  87 SE3       29.87F
HAMILTON       CLOUDY    46  41  84 S10       29.85F
LAMPASAS       CLOUDY    53  50  89 SW6       29.84F
$$

TXZ095>097-106>112-122>126-135>138-148>153-164>167-211200-
EAST TEXAS

CITY           SKY/WX    TMP DP  RH WIND       PRES   REMARKS
PARIS          CLOUDY    40  38  93 SE8       29.89F WCI  34
SULPHUR SPRNGS CLEAR     51  47  85 S10       29.90F
MOUNT PLEASANT CLEAR     42  39  87 SE6       29.92F WCI  39
GILMER         CLEAR     44  38  82 SE5       29.92F
MINEOLA        CLEAR     48  45  87 SE6       29.90F
TYLER          CLEAR     44  42  93 S6        29.91F
LONGVIEW       NOT AVBL
MARSHALL       CLEAR     37  34  90 CALM      29.97F
ATHENS         CLEAR     45  41  87 S8        29.90F
PALESTINE      PTCLDY    49  46  89 SE6       29.93F
JACKSONVILLE   CLEAR     46  42  88 S9        29.94F
HENDERSON      CLEAR     42  39  89 CALM      29.94F
CENTER         SUNNY     38  35  91 CALM      29.97F
NACOGDOCHES    CLEAR     38  36  92 CALM      29.96F
LUFKIN         CLOUDY    43  38  82 E3        29.95F
$$

SUPPLEMENTAL OBSERVATIONS (NWS FORT WORTH AREA)

CITY           SKY/WX    TMP DP  RH WIND       PRES   REMARKS
DENISON DAM      N/A     48  41  76 SE5         N/A
CADDO GRASSLND   N/A     48  43  81 S7          N/A
PAT MAYSE LAKE   N/A     45  41  87 E5          N/A
GREENVILLE       N/A     48  45  87 S9          N/A
CEDAR HILL       N/A     50  45  81 SE10        N/A
LBJ GRASSLAND    N/A     50  34  53 SE8         N/A
POSSUM KINGDOM   N/A     52  34  50 S8          N/A
GRANBURY         N/A     46  36  66 SE7         N/A
COMANCHE         N/A     50  37  62 S6G17       N/A
MCGREGOR         N/A     50  46  87 S3          N/A
TEMPLE           N/A     48  45  87 SE5         N/A
LAKE LIMESTONE   N/A     48  46  93 S2          N/A
$$

SUPPLEMENTAL OBSERVATIONS (NWS NORMAN AREA)

CITY           SKY/WX    TMP DP  RH WIND       PRES   REMARKS
GOODLETT         N/A     38  30  73 NW9       29.76R WCI  31
ODELL            N/A     40  33  75 E5        29.76S WCI  37
CROWELL          N/A     42  32  69 SW3       29.76R
KNOX CITY        N/A     47  34  61 SW8       29.76S
SEYMOUR          N/A     43  34  70 SE7       29.76S WCI  39
MILLERS CREEK    N/A     46  36  66 S5          N/A
$$

SUPPLEMENTAL OBSERVATIONS (NWS SAN ANGELO AREA)

CITY           SKY/WX    TMP DP  RH WIND       PRES   REMARKS
WEINERT          N/A     48  35  59 SW9       29.77R
HASKELL          N/A     47  35  61 S8        29.77R
THROCKMORTON     N/A     44  35  70 S7        29.78R
STAMFORD         N/A     48  37  64 SW7       29.78R
CLYDE            N/A     50  36  58 S10       29.80R
HAMBY            N/A     52  36  54 SW14        N/A
IVIE RESERVOIR   N/A     48  37  66 S3          N/A
COLORADO BEND    N/A     50  45  81 S7          N/A
$$

SUPPLEMENTAL OBSERVATIONS (NWS SHREVEPORT AREA)

CITY           SKY/WX    TMP DP  RH WIND       PRES   REMARKS
CLARKSVILLE      N/A     43  37  81 SE5         N/A
TEXARKANA        N/A     34  32  93 CALM        N/A
LINDEN           N/A     37  34  87 CALM        N/A
CADDO LAKE       N/A     36  34  93 CALM        N/A
GILMER           N/A     45  37  76 S3          N/A
HENDERSON        N/A     43  39  87 SE1         N/A
LUFKIN           N/A     45  37  76 MISG        N/A
N SABINE NF      N/A     39  34  81 MISG        N/A
S SABINE NF      N/A     39  37  93 CALM        N/A
$$

SUPPLEMENTAL OBSERVATIONS ARE A COLLECTION OF AUTOMATED INSTRUMENTS
THAT ARE MAINTAINED BY A VARIETY OF FEDERAL AND STATE AGENCIES.
CERTAIN ELEMENTS...SUCH AS HUMIDITY VALUES AND SUSTAINED WIND
SPEEDS...MAY BE APPROXIMATED.





USA.gov is the U.S. government's official web portal to all federal, state and local government web resources and services.